This is the latest recevied weather packets stored in our database for station/object WD0REW. If no packets are shown the sender has not sent any weather packets the latest 10 day(s).
| Time | Temp. | Humidity | Pressure | Rain* | Wind** | Luminosity | Snow |
|---|---|---|---|---|---|---|---|
| 1778017896 | 8.89° C | 85% | 1009.9 hPa | 0 mm | - | 47 W/m² | - |
| 1778017594 | 8.89° C | 84% | 1009.8 hPa | 0 mm | - | 36 W/m² | - |
| 1778017291 | 9.44° C | 82% | 1009.9 hPa | 0 mm | - | 46 W/m² | - |
| 1778016989 | 9.44° C | 81% | 1010.2 hPa | 0 mm | - | 34 W/m² | - |
| 1778016685 | 9.44° C | 81% | 1010.1 hPa | 0 mm | - | 32 W/m² | - |
| 1778016381 | 9.44° C | 81% | 1010 hPa | 0 mm | - | 54 W/m² | - |
| 1778016079 | 9.44° C | 82% | 1010.2 hPa | 0 mm | - | 44 W/m² | - |
| 1778015775 | 9.44° C | 82% | 1009.8 hPa | 0 mm | - | 48 W/m² | - |
| 1778015472 | 9.44° C | 82% | 1009.7 hPa | 0 mm | - | 31 W/m² | - |
| 1778015169 | 9.44° C | 82% | 1009.9 hPa | 0 mm | - | 70 W/m² | - |
| 1778014866 | 9.44° C | 82% | 1009.7 hPa | 0 mm | - | 58 W/m² | - |
| 1778014564 | 10° C | 82% | 1009.5 hPa | 0 mm | - | 82 W/m² | - |
| 1778014261 | 9.44° C | 82% | 1009.7 hPa | 0 mm | - | 70 W/m² | - |
| 1778013958 | 9.44° C | 82% | 1010.2 hPa | 0 mm | - | 86 W/m² | - |
| 1778013655 | 9.44° C | 81% | 1010.1 hPa | 0 mm | - | 68 W/m² | - |
| 1778013352 | 9.44° C | 82% | 1010.1 hPa | 0 mm | - | 69 W/m² | - |
| 1778013050 | 9.44° C | 83% | 1010.1 hPa | 0 mm | - | 90 W/m² | - |
| 1778012745 | 9.44° C | 86% | 1009.8 hPa | 0 mm | - | 74 W/m² | - |
| 1778012441 | 9.44° C | 86% | 1009.6 hPa | 0 mm | - | 96 W/m² | - |
| 1778012138 | 10° C | 87% | 1009.6 hPa | 0 mm | - | 60 W/m² | - |
| 1778011836 | 10° C | 88% | 1009.3 hPa | 0 mm | - | 80 W/m² | - |
| 1778011534 | 10° C | 88% | 1009.1 hPa | 0 mm | - | 126 W/m² | - |
| 1778011230 | 10° C | 87% | 1009.3 hPa | 0 mm | - | 101 W/m² | - |
| 1778010926 | 10° C | 89% | 1009.6 hPa | 0 mm | - | 144 W/m² | - |
| 1778010624 | 10° C | 89% | 1009.7 hPa | 1.78 mm | - | 103 W/m² | - |
* Rain latest hour (hover to see other rain measurements)
** Current wind speed in m/s (hover to see current wind gust speed)